Regional Weather Roundup
Issued by NWS San Angelo, TX

Home | Current Version | Previous Version | Text Only | Print | Product List | Glossary On
Versions: 1 2 3 4 5 6 7 8 9 10 11 12 13 14 15 16 17 18 19 20 21 22 23 24 25 26 27 28 29 30 31 32 33 34 35 36 37 38 39 40 41 42 43 44 45 46 47 48 49 50
000
ASUS44 KSJT 231902
RWRSJT
WEST CENTRAL TEXAS REGIONAL WEATHER ROUNDUP
NATIONAL WEATHER SERVICE SAN ANGELO TX
200 PM CDT TUE MAY 23 2017

NOTE: "FAIR" INDICATES FEW OR NO CLOUDS BELOW 12,000 FEET WITH NO
SIGNIFICANT WEATHER AND/OR OBSTRUCTIONS TO VISIBILITY.

TXZ049-054-064>066-071>073-076>078-098-099-113-114-127-128-139-140-
154-155-168>170-232000
...LOCATIONS ACROSS WEST CENTRAL TEXAS...

CITY           SKY/WX    TMP DP  RH WIND       PRES   REMARKS
SAN ANGELO     CLOUDY    69  51  52 N18       30.01F
ABILENE        LGT RAIN  58  54  86 MISG      30.03F
DYESS AFB      NOT AVBL
JUNCTION       PTSUNNY   75  59  57 N14       29.94F
SWEETWATER     CLOUDY    61  48  62 N20G31    30.10S
BROWNWOOD      NOT AVBL
COLEMAN        LGT RAIN  66  55  67 N14G22    30.00F
SONORA         CLOUDY    68  57  68 NE16      30.03S
OZONA            N/A     68  54  60 N18G26    30.03S
BRADY          NOT AVBL
$$

TEXAS PANHANDLE/OKLAHOMA PANHANDLE

CITY           SKY/WX    TMP DP  RH WIND       PRES   REMARKS
AMARILLO       MOSUNNY   64  38  38 N23G31    30.10F
BORGER         MOSUNNY   65  38  36 N18G26    30.08F
CANADIAN       MOSUNNY   65  45  48 N16G25    30.04F
DALHART        MOSUNNY   65  36  34 N25G31    30.11F
DUMAS          PTCLDY    62  37  40 N20G28    30.10F
GUYMON         NOT AVBL
HEREFORD       MOCLDY    64  37  36 N21G29    30.13F
PAMPA          PTCLDY    64  40  41 N17G28    30.08F
PERRYTON       MOSUNNY   65  45  48 N17       30.04F
$$

SOUTHERN PANHANDLE/SOUTH PLAINS/ROLLING PLAINS

CITY           SKY/WX    TMP DP  RH WIND       PRES   REMARKS
LUBBOCK        LGT RAIN  52  47  83 NW9       30.13F
SNYDER         CLOUDY    60  47  62 N22G28    30.11S
CHILDRESS      CLOUDY    65  42  43 N16       30.06F
SEMINOLE       CLOUDY    62  39  42 N22G30    30.16S
$$

PERMIAN BASIN

CITY           SKY/WX    TMP DP  RH WIND       PRES   REMARKS
MIDLAND        CLOUDY    66  45  46 N20G28    30.11R
ODESSA         CLOUDY    66  45  46 NE17G24   30.12S
WINK           PTSUNNY   69  44  40 N17G28    30.11F
$$

FAR WEST/SOUTHWEST MOUNTAINS/TRANS PECOS

CITY           SKY/WX    TMP DP  RH WIND       PRES   REMARKS
ALPINE         CLOUDY    63  49  59 NE15G22   30.19S
DRYDEN           N/A     74  59  59 N17G25    29.98R
EL PASO        MOSUNNY   81  38  21 SE9G20    30.03F
FORT STOCKTON  CLOUDY    64  54  69 N13       30.10R
GUADALUPE PASS NOT AVBL
MARFA          SUNNY     67  50  54 NE26G32   30.12S
PECOS          CLOUDY    67  45  44 N17G23    30.12S
$$

DALLAS/FORT WORTH METROPLEX

CITY           SKY/WX    TMP DP  RH WIND       PRES   REMARKS
DFW AIRPORT    CLOUDY    74  59  59 NW17G23   29.86F
FTW MEACHAM    CLOUDY    73  56  54 NW15      29.88F
DAL-EXECUTIVE  MOSUNNY   74  62  66 NW14      29.86S
GRAND PRAIRIE  PTSUNNY   72  57  60 NW5       29.89S
ADDISON        NOT AVBL
MESQUITE       MOCLDY    70  66  88 N7        29.86F
LANCASTER      CLOUDY    73  62  68 NW12      29.87S
$$

NORTH CENTRAL TEXAS

CITY           SKY/WX    TMP DP  RH WIND       PRES   REMARKS
SHRMAN/DENISON NOT AVBL
GAINESVILLE    PTSUNNY   66  55  66 N15G21    29.93S
BRIDGEPORT     MOCLDY    66  54  63 N13G21    29.96S
DENTON         CLOUDY    67  57  70 NW17G23   29.89F
WAXAHACHIE     CLOUDY    72  64  76 NW10G17   29.88F
GRANBURY       CLOUDY    74  55  51 NW16G24   29.92F
$$

WESTERN NORTH TEXAS

CITY           SKY/WX    TMP DP  RH WIND       PRES   REMARKS
WICHITA FALLS  LGT RAIN  60  54  80 NW14      29.98F
VERNON         CLOUDY    62  48  58 N8        30.03F
BRECKENRIDGE   CLOUDY    65  50  58 N14G20    29.98F
COMANCHE       CLOUDY    61  60  97 NW9       29.99R
$$

CENTRAL AND SOUTH CENTRAL TEXAS

CITY           SKY/WX    TMP DP  RH WIND       PRES   REMARKS
AUSTIN/BERGSTM MOSUNNY   82  64  54 NW6       29.84F
WACO           CLOUDY    74  63  68 N15G26    29.88F
HILLSBORO      CLOUDY    75  65  70 NW15      29.88F
TEMPLE         PTSUNNY   80  62  54 NW16G24   29.87F
KILLEEN-GRAY   NOT AVBL
FORT HOOD      NOT AVBL
GEORGETOWN     PTSUNNY   82  61  47 N7        29.86F
LAGO VISTA     MOCLDY    81  62  53 NE5       29.88F
SAN MARCOS     MOSUNNY   79  64  61 CALM      29.87F
NEW BRAUNFELS  SUNNY     82  64  54 N7        29.85F
RANDOLPH AFB   NOT AVBL
SAN ANTONIO    PTSUNNY   82  65  56 E9        29.85F
STINSON        PTSUNNY   87  65  47 E7        29.82F
PLEASANTON     NOT AVBL
LA GRANGE      SUNNY     83  65  54 CALM      29.80F
GIDDINGS       CLEAR     80  63  56 N7        29.84F
$$

EAST TEXAS

CITY           SKY/WX    TMP DP  RH WIND       PRES   REMARKS
PARIS          PTSUNNY   73  59  60 NW12      29.83F
CLARKSVILLE    NOT AVBL
TYLER          MOSUNNY   75  61  61 NW12      29.83F
LONGVIEW       PTSUNNY   76  64  66 MISG      29.82F
PALESTINE      MOCLDY    76  65  68 NW5       29.85S
NACOGDOCHES    PTSUNNY   73  63  68 N5        29.81F
$$

TEXAS HILL COUNTRY AND EDWARDS PLATEAU

CITY           SKY/WX    TMP DP  RH WIND       PRES   REMARKS
LLANO          NOT AVBL
HORSESHOE BAY  NOT AVBL
KERRVILLE      CLOUDY    79  62  55 N12       29.91S
FREDERICKSBRG  NOT AVBL
ROCKSPRINGS    MOCLDY    75  57  53 N8        29.97S
HONDO          PTSUNNY   85  65  51 CALM      29.85F
UVALDE         CLOUDY    80  64  59 CALM      29.88F
DEL RIO        CLOUDY    76  69  79 NW7       29.89F
$$

SOUTHEAST TEXAS

CITY           SKY/WX    TMP DP  RH WIND       PRES   REMARKS
COLLEGE STN    SUNNY     79  65  62 NW13      29.83F
CALDWELL       NOT AVBL
CROCKETT       NOT AVBL
BRENHAM        SUNNY     83  63  50 NW5       29.83F
HUNTSVILLE     MOSUNNY   81  62  52 MISG      29.83F
CONROE         SUNNY     82  62  50 NW8       29.82F
HOUSTON BUSH   MOSUNNY   83  65  54 CALM      29.80F
HOUSTON HOBBY  MOSUNNY   83  64  52 E6        29.80F
PERLAND        SUNNY     84  61  45 VRB3      29.82F
WHARTON        NOT AVBL
$$

THE UPPER TEXAS COAST

CITY           SKY/WX    TMP DP  RH WIND       PRES   REMARKS
ORANGE         MOCLDY    78  67  70 NE8       29.84F
PORT ARTHUR    PTSUNNY   79  65  62 N9        29.81F
GALVESTON      SUNNY     79  68  69 N9        29.82F
ANGLETON       MOSUNNY   84  68  58 VRB5      29.81F
BAY CITY       CLEAR     83  67  58 N5        29.81F
$$

TEXAS COASTAL BEND, RIO GRANDE PLAINS DEEP SOUTH TEXAS

CITY           SKY/WX    TMP DP  RH WIND       PRES   REMARKS
VICTORIA       SUNNY     86  66  51 VRB5      29.82F
BEEVILLE       MOCLDY    86  68  53 N6        29.83F
ROCKPORT       PTSUNNY   83  69  62 SE7       29.81F
PORT ARANSAS   MOCLDY    78  69  74 E9        29.83F
PORT LAVACA    CLEAR     82  71  68 CALM      29.83F
CORPUS CHRISTI CLOUDY    84  71  65 E10       29.82F
KINGSVILLE NAS CLOUDY    86  74  67 E10       29.82F
COTULLA        MOSUNNY   83  66  56 CALM      29.84F
LAREDO         NOT AVBL
BROWNSVILLE    LGT RAIN  79  73  82 SE15G23   29.80R
PORT ISABEL    MOSUNNY   87  75  67 E13       29.78F
HEBBRONVILLE   NOT AVBL
MCALLEN        SUNNY     94  74  52 NE7       29.77F
WESLACO        MOSUNNY   91  74  57 E7        29.76F
FALFURRIAS     CLOUDY    85  73  67 E9        29.81F
EDINBURG       MOCLDY    93  71  48 NE9       29.77F
$$




USA.gov is the U.S. government's official web portal to all federal, state and local government web resources and services.